TimeAKST,TemperatureF,Dew PointF,Humidity,Sea Level PressureIn,VisibilityMPH,Wind Direction,Wind SpeedMPH,Gust SpeedMPH,PrecipitationIn,Events,Conditions,WindDirDegrees,DateUTC
12:53 AM,37.0,30.0,76,29.64,9.0,NW,34.5,46.0,0.00,Snow,Light Snow,310,2012-11-27 09:53:00
1:53 AM,36.0,30.9,82,29.68,9.0,NW,27.6,49.5,0.00,Snow,Light Snow,310,2012-11-27 10:53:00
2:40 AM,37.4,32.0,81,29.73,7.0,NW,32.2,49.5,0.00,Snow,Light Snow,310,2012-11-27 11:40:00
3:53 AM,36.0,30.9,82,29.75,9.0,NW,27.6,49.5,0.00,Snow,Light Snow,310,2012-11-27 12:53:00
4:14 AM,35.6,30.2,81,29.80,9.0,NW,29.9,49.5,0.00,Snow,Light Snow,310,2012-11-27 13:14:00
4:24 AM,35.6,30.2,81,29.80,9.0,NW,27.6,42.6,0.00,Snow,Light Snow,310,2012-11-27 13:24:00
4:53 AM,35.1,32.0,89,29.79,4.0,NW,27.6,43.7,0.00,Snow,Light Snow,310,2012-11-27 13:53:00
5:16 AM,35.6,30.2,81,29.83,10.0,NW,31.1,41.4,0.00,,Scattered Clouds,310,2012-11-27 14:16:00
5:30 AM,35.6,30.2,81,29.83,6.0,NW,36.8,47.2,0.00,Snow,Light Snow,310,2012-11-27 14:30:00
5:38 AM,35.6,30.2,81,29.85,7.0,NW,29.9,49.5,0.00,Snow,Light Snow,310,2012-11-27 14:38:00
5:53 AM,36.0,30.0,79,29.81,8.0,NW,38.0,48.3,0.00,Snow,Light Snow,320,2012-11-27 14:53:00
6:53 AM,36.0,30.9,82,29.85,9.0,NW,34.5,47.2,0.00,Snow,Light Snow,310,2012-11-27 15:53:00
7:39 AM,35.6,30.2,81,29.92,6.0,NW,34.5,58.7,0.00,Snow,Light Snow,320,2012-11-27 16:39:00
7:53 AM,36.0,28.9,76,29.89,8.0,NW,43.7,55.2,0.00,Snow,Light Snow,320,2012-11-27 16:53:00
8:17 AM,35.6,28.4,75,29.93,9.0,NW,41.4,51.8,0.00,Snow,Light Snow,320,2012-11-27 17:17:00
8:53 AM,36.0,28.0,73,29.92,9.0,NW,36.8,54.1,0.00,Snow,Light Snow,320,2012-11-27 17:53:00
9:17 AM,35.6,30.2,81,29.96,10.0,NW,40.3,54.1,0.00,,Overcast,320,2012-11-27 18:17:00
9:46 AM,35.6,26.6,70,29.98,9.0,NNW,35.7,49.5,0.00,,Overcast,330,2012-11-27 18:46:00
9:53 AM,35.1,27.0,72,29.95,10.0,NNW,38.0,46.0,0.00,,Overcast,330,2012-11-27 18:53:00
10:29 AM,35.6,30.2,81,30.00,10.0,NNW,36.8,46.0,N/A,,Overcast,330,2012-11-27 19:29:00
10:36 AM,35.6,30.2,81,30.02,10.0,NNW,31.1,43.7,N/A,,Overcast,340,2012-11-27 19:36:00
10:53 AM,36.0,28.0,73,29.99,10.0,NNW,31.1,42.6,N/A,,Overcast,330,2012-11-27 19:53:00
11:36 AM,35.6,26.6,70,30.04,10.0,NNW,31.1,38.0,N/A,,Overcast,330,2012-11-27 20:36:00
11:53 AM,35.1,27.0,72,30.02,10.0,NNW,31.1,42.6,N/A,,Overcast,340,2012-11-27 20:53:00
12:53 PM,35.1,27.0,72,30.02,10.0,NW,39.1,47.2,0.00,,Overcast,320,2012-11-27 21:53:00
1:05 PM,33.8,28.4,81,30.06,9.0,NNW,39.1,48.3,0.00,,Overcast,330,2012-11-27 22:05:00
1:36 PM,33.8,30.2,87,30.06,6.0,NW,32.2,43.7,0.00,Snow,Light Snow,320,2012-11-27 22:36:00
1:53 PM,34.0,30.9,89,30.04,7.0,NW,26.5,41.4,0.00,,Overcast,320,2012-11-27 22:53:00
2:02 PM,33.8,30.2,87,30.07,2.5,NW,32.2,41.4,0.00,Snow,Light Snow,320,2012-11-27 23:02:00
2:18 PM,33.8,30.2,87,30.07,9.0,NW,26.5,41.4,0.00,,Overcast,310,2012-11-27 23:18:00
2:53 PM,34.0,30.9,89,30.05,2.5,NNW,31.1,46.0,0.00,Snow,Light Snow,330,2012-11-27 23:53:00
3:08 PM,33.8,30.2,87,30.08,9.0,NW,34.5,41.4,0.00,Snow,Light Snow,320,2012-11-28 00:08:00
3:26 PM,33.8,30.2,87,30.08,8.0,NNW,34.5,42.6,0.00,Snow,Light Snow,330,2012-11-28 00:26:00
3:41 PM,33.8,30.2,87,30.09,2.5,NNW,31.1,41.4,0.00,Snow,Light Snow,330,2012-11-28 00:41:00
3:44 PM,33.8,30.2,87,30.09,1.0,NNW,32.2,41.4,0.00,Snow,Light Snow,340,2012-11-28 00:44:00
3:53 PM,33.1,30.9,92,30.06,1.8,NNW,34.5,48.3,0.00,Snow,Light Snow,340,2012-11-28 00:53:00
3:55 PM,33.8,30.2,87,30.10,4.0,NNW,33.4,48.3,0.00,Snow,Light Snow,340,2012-11-28 00:55:00
4:20 PM,33.8,28.4,81,30.10,9.0,NNW,38.0,50.6,0.00,Snow,Light Snow,340,2012-11-28 01:20:00
4:29 PM,33.8,28.4,81,30.10,8.0,NNW,36.8,44.9,0.00,Snow,Light Snow,340,2012-11-28 01:29:00
4:53 PM,34.0,30.0,85,30.08,9.0,NNW,32.2,41.4,0.00,Snow,Light Snow,340,2012-11-28 01:53:00
5:53 PM,34.0,28.0,79,30.10,9.0,NNW,35.7,47.2,0.00,Snow,Light Snow,340,2012-11-28 02:53:00
6:53 PM,33.1,28.9,85,30.12,9.0,NNW,35.7,42.6,0.00,Snow,Light Snow,340,2012-11-28 03:53:00
7:39 PM,33.8,28.4,81,30.16,5.0,North,27.6,48.3,0.00,Snow,Light Snow,350,2012-11-28 04:39:00
7:49 PM,33.8,28.4,81,30.15,9.0,NNW,33.4,50.6,0.00,Snow,Light Snow,340,2012-11-28 04:49:00
7:53 PM,33.1,28.9,85,30.11,9.0,NNW,38.0,46.0,0.00,Snow,Light Snow,340,2012-11-28 04:53:00
8:08 PM,33.8,28.4,81,30.14,7.0,North,35.7,47.2,0.00,Snow,Light Snow,350,2012-11-28 05:08:00
8:37 PM,33.8,30.2,87,30.16,9.0,NNW,28.8,50.6,0.00,Snow,Light Snow,340,2012-11-28 05:37:00
8:53 PM,33.1,30.9,92,30.12,3.0,North,29.9,51.8,0.00,Snow,Light Snow,350,2012-11-28 05:53:00
9:53 PM,34.0,30.0,85,30.13,10.0,North,24.2,41.4,0.00,,Overcast,10,2012-11-28 06:53:00
10:07 PM,33.8,30.2,87,30.16,9.0,NNW,23.0,46.0,0.00,Snow,Light Snow,340,2012-11-28 07:07:00
10:37 PM,33.8,32.0,93,30.16,2.5,North,25.3,40.3,0.00,Snow,Light Snow,360,2012-11-28 07:37:00
10:49 PM,33.8,30.2,87,30.17,7.0,North,25.3,43.7,0.00,Snow,Light Snow,10,2012-11-28 07:49:00
10:53 PM,33.1,30.9,92,30.14,9.0,North,25.3,43.7,0.00,Snow,Light Snow,10,2012-11-28 07:53:00
11:08 PM,33.8,30.2,87,30.18,10.0,North,24.2,38.0,0.00,,Overcast,360,2012-11-28 08:08:00
11:26 PM,33.8,32.0,93,30.18,2.5,North,21.9,34.5,0.00,,Overcast,10,2012-11-28 08:26:00
11:34 PM,33.8,30.2,87,30.18,6.0,North,25.3,35.7,0.00,,Overcast,10,2012-11-28 08:34:00
11:53 PM,33.1,32.0,96,30.15,5.0,North,23.0,34.5,0.00,,Overcast,10,2012-11-28 08:53:00